STARLINK-1407, 45703

Orbit data source: Space-Track

STARLINK-1407, 45703 is a payload satellite owned by SpaceX/Seattle (US) in LEO that was launched on Thu, 04 Jun 2020 UTC via an FALCON 9 launch vehicle from the Air Force Eastern Test Range (AFETR). Payload-class satellites include a variety of spacecraft equipped with specific instruments for various scientific and technological missions. These include communications satellites like Starlink; space stations such as the ISS; scientific satellites like the Hubble; Earth observation satellites from companies like Planet Labs, Umbra, and HawkEye 360; GPS; miniature CubeSats for education and research; and military/defense satellites.

Loading next visibility...
Identifier
45703, 2020-035AY
Orbit
LEO
Country
Flag of USUS
Related business
Manufacturer
SpaceX/Seattle
Mission
Partially operational Commercial Communications
Bus & Motor
STARLINK, Unknown motor
Mass
260 kg wet, ~248 kg dry
Launch date (UTC)
2020-06-04 (6 years ago)
Launch vehicle
FALCON 9
Launch site
Air Force Eastern Test Range (AFETR)
Object type
Payload
Rocket body
Debris
Shape & HBR
Box + 1 Pan, 10.1 m
Radar Cross Section
13.562 m², Large (>1 m²)

Expand to show TLE details & history
Last TLE update: 19 hours ago

TLE from 19 hours ago
0 STARLINK-1407
1 45703U 20035AY  26162.40984188  .00111775  00000-0  73845-3 0  9990
2 45703  53.0277 213.7431 0006950  35.9171 324.2313 15.74744374334994
Epoch: 2026-06-11T09:50Z
TLE epoch observation values (Epoch: 2026-06-11T09:50:10.338Z)
Latitude
-0.00005°
Longitude
166.44594°
Altitude
342.471 km
Speed
7.707 km/s
True Right ascension
14h 14m 58s
True Declination
0° 00' 00"
Sunlit
Object was in full shadow at epoch
Visualization orbit readout
Latitude
Unknown
Longitude
Unknown
Altitude
Unknown
Speed
Unknown
Apparent Right ascension
Unknown
Apparent Declination
Unknown
Sunlit
N/A
Visualization observer readout
Local Sidereal Time
15:35:44
Azimuth
Unknown
Elevation
Unknown
Doppler factor
Unknown
Orbital elements
Apogee altitude
350.315 km
Perigee altitude
340.969 km
Semi-major axis
6,723.779 km
Eccentricity
0.0007
Inclination
53.0277°
RAAN
213.7431°
Arg. of periapsis
35.9171°
True anomaly
324.18472°
Mean anomaly
324.2313°
Eccentric anomaly
324.20801°
Mean motion
3.93662 °/min
Orbital period
91.45 mins
BSTAR
0.00073845
Loading maneuver chart data...
Computing Atmospheric mass density...

Documentation

Showing up to 5 results
|